DL1MMS-10 Weather Reports


Display with metric or nautical units.
time (UTC)temp
F
wind
direction
speed
MPH
gust
MPH
rain 1hr
in
rain 24hr
in
rain mn
in
humidity
%
barometer
mb
20260507195603 52 0 0.0 0.0 0.00 0.00 0.00 73 1016.7
20260507195103 52 0 0.0 0.0 0.00 0.00 0.00 73 1016.7
20260507194603 52 0 0.0 0.0 0.00 0.00 0.00 73 1016.6
20260507194103 52 0 0.0 0.0 0.00 0.00 0.00 72 1016.6
20260507193602 52 0 0.0 0.0 0.00 0.00 0.00 71 1016.6
20260507193102 52 0 0.0 0.0 0.00 0.00 0.00 71 1016.4
20260507192602 53 0 0.0 0.0 0.00 0.00 0.00 70 1016.3
20260507192101 53 0 0.0 0.0 0.00 0.00 0.00 69 1016.2
20260507191601 53 0 0.0 0.0 0.00 0.00 0.00 69 1016.3
20260507191101 53 0 0.0 0.0 0.00 0.00 0.00 69 1016.3
20260507190601 53 0 0.0 0.0 0.00 0.00 0.00 69 1016.0
20260507190100 53 0 0.0 0.0 0.00 0.00 0.00 68 1016.0
20260507185600 53 0 0.0 0.0 0.00 0.00 0.00 68 1016.0
20260507185100 54 0 0.0 0.0 0.00 0.00 0.00 67 1016.0
20260507184559 54 0 0.0 0.0 0.00 0.00 0.00 66 1015.7
20260507184059 55 0 0.0 0.0 0.00 0.00 0.00 65 1015.9
20260507183559 55 0 0.0 0.0 0.00 0.00 0.00 63 1015.7
20260507183059 55 0 0.0 0.0 0.00 0.00 0.00 61 1015.6
20260507182558 56 0 0.0 0.0 0.00 0.00 0.00 59 1015.5
20260507182058 56 0 0.0 0.0 0.00 0.00 0.00 58 1015.5
20260507181558 57 0 0.0 0.0 0.00 0.00 0.00 58 1015.4
20260507181058 57 0 0.0 0.0 0.00 0.00 0.00 57 1015.5
20260507180558 58 0 0.0 0.0 0.00 0.00 0.00 57 1015.5
20260507180057 58 0 0.0 0.0 0.00 0.00 0.00 57 1015.2
20260507175557 59 0 0.0 0.0 0.00 0.00 0.00 57 1015.2
20260507175056 59 0 0.0 0.0 0.00 0.00 0.00 56 1015.3
20260507174556 59 0 0.0 0.0 0.00 0.00 0.00 56 1015.2
20260507174056 60 0 0.0 0.0 0.00 0.00 0.00 55 1015.2
20260507173556 60 0 0.0 0.0 0.00 0.00 0.00 55 1015.1
20260507173055 60 0 0.0 0.0 0.00 0.00 0.00 54 1015.0
20260507172555 61 0 0.0 0.0 0.00 0.00 0.00 53 1015.2
20260507172055 62 0 0.0 0.0 0.00 0.00 0.00 52 1015.1
20260507171554 63 0 0.0 0.0 0.00 0.00 0.00 51 1015.1
20260507171054 64 0 0.0 0.0 0.00 0.00 0.00 49 1015.1
20260507170554 65 0 0.0 0.0 0.00 0.00 0.00 47 1015.1
20260507170054 66 0 0.0 0.0 0.00 0.00 0.00 45 1015.0
20260507165553 68 0 0.0 0.0 0.00 0.00 0.00 43 1015.0
20260507165053 69 0 0.0 0.0 0.00 0.00 0.00 41 1015.0
20260507164553 72 0 0.0 0.0 0.00 0.00 0.00 40 1015.0
20260507164052 73 0 0.0 0.0 0.00 0.00 0.00 41 1015.0
20260507163552 72 0 0.0 0.0 0.00 0.00 0.00 43 1015.0
20260507163052 69 0 0.0 0.0 0.00 0.00 0.00 43 1014.9
20260507162552 71 0 0.0 0.0 0.00 0.00 0.00 40 1014.9
20260507162051 74 0 0.0 0.0 0.00 0.00 0.00 38 1014.8
20260507161551 79 0 0.0 0.0 0.00 0.00 0.00 34 1014.8
20260507161051 83 0 0.0 0.0 0.00 0.00 0.00 31 1014.7
20260507160550 85 0 0.0 0.0 0.00 0.00 0.00 32 1014.7
20260507160050 85 0 0.0 0.0 0.00 0.00 0.00 32 1014.8
20260507155550 84 0 0.0 0.0 0.00 0.00 0.00 32 1014.7
20260507155050 83 0 0.0 0.0 0.00 0.00 0.00 34 1014.7
20260507154549 81 0 0.0 0.0 0.00 0.00 0.00 35 1014.8
20260507154049 80 0 0.0 0.0 0.00 0.00 0.00 37 1014.6
20260507153549 77 0 0.0 0.0 0.00 0.00 0.00 39 1014.7
20260507153048 77 0 0.0 0.0 0.00 0.00 0.00 39 1014.8
20260507152548 77 0 0.0 0.0 0.00 0.00 0.00 39 1014.7
20260507152048 77 0 0.0 0.0 0.00 0.00 0.00 40 1014.7
20260507151548 75 0 0.0 0.0 0.00 0.00 0.00 43 1014.7
20260507151047 73 0 0.0 0.0 0.00 0.00 0.00 45 1014.6
20260507150547 69 0 0.0 0.0 0.00 0.00 0.00 47 1014.6
20260507150047 69 0 0.0 0.0 0.00 0.00 0.00 48 1014.6
20260507145546 67 0 0.0 0.0 0.00 0.00 0.00 48 1014.6
20260507145046 67 0 0.0 0.0 0.00 0.00 0.00 47 1014.5
20260507144546 68 0 0.0 0.0 0.00 0.00 0.00 46 1014.6
20260507144046 69 0 0.0 0.0 0.00 0.00 0.00 45 1014.6
20260507143545 71 0 0.0 0.0 0.00 0.00 0.00 43 1014.6
20260507143045 72 0 0.0 0.0 0.00 0.00 0.00 43 1014.6
20260507142545 70 0 0.0 0.0 0.00 0.00 0.00 44 1014.4
20260507142044 71 0 0.0 0.0 0.00 0.00 0.00 45 1014.5
20260507141544 71 0 0.0 0.0 0.00 0.00 0.00 45 1014.8
20260507141044 70 0 0.0 0.0 0.00 0.00 0.00 46 1014.6
20260507140544 69 0 0.0 0.0 0.00 0.00 0.00 46 1014.6
20260507140043 69 0 0.0 0.0 0.00 0.00 0.00 46 1014.6
20260507135543 68 0 0.0 0.0 0.00 0.00 0.00 47 1014.5
20260507135043 68 0 0.0 0.0 0.00 0.00 0.00 47 1014.6
20260507134542 67 0 0.0 0.0 0.00 0.00 0.00 47 1014.7
20260507134042 67 0 0.0 0.0 0.00 0.00 0.00 43 1014.7
20260507133542 68 0 0.0 0.0 0.00 0.00 0.00 42 1014.6
20260507133042 69 0 0.0 0.0 0.00 0.00 0.00 42 1014.5
20260507132541 69 0 0.0 0.0 0.00 0.00 0.00 42 1014.5
20260507132041 68 0 0.0 0.0 0.00 0.00 0.00 43 1014.7
20260507131541 67 0 0.0 0.0 0.00 0.00 0.00 44 1014.5
20260507131041 68 0 0.0 0.0 0.00 0.00 0.00 44 1014.5
20260507130540 69 0 0.0 0.0 0.00 0.00 0.00 43 1014.6
20260507130040 69 0 0.0 0.0 0.00 0.00 0.00 43 1014.7
20260507125540 68 0 0.0 0.0 0.00 0.00 0.00 43 1014.5
20260507125039 68 0 0.0 0.0 0.00 0.00 0.00 43 1014.5
20260507124539 69 0 0.0 0.0 0.00 0.00 0.00 43 1014.6
20260507124039 69 0 0.0 0.0 0.00 0.00 0.00 45 1014.6
20260507123539 68 0 0.0 0.0 0.00 0.00 0.00 46 1014.5
20260507123038 66 0 0.0 0.0 0.00 0.00 0.00 47 1014.6
20260507122538 65 0 0.0 0.0 0.00 0.00 0.00 48 1014.5
20260507122038 65 0 0.0 0.0 0.00 0.00 0.00 49 1014.6
20260507121537 65 0 0.0 0.0 0.00 0.00 0.00 48 1014.5
20260507121037 67 0 0.0 0.0 0.00 0.00 0.00 47 1014.4
20260507120537 66 0 0.0 0.0 0.00 0.00 0.00 47 1014.5
20260507120037 64 0 0.0 0.0 0.00 0.00 0.00 49 1014.5
20260507115536 64 0 0.0 0.0 0.00 0.00 0.00 48 1014.6
20260507115036 65 0 0.0 0.0 0.00 0.00 0.00 48 1014.7
20260507114536 66 0 0.0 0.0 0.00 0.00 0.00 46 1014.6
20260507114035 68 0 0.0 0.0 0.00 0.00 0.00 46 1014.7
20260507113536 67 0 0.0 0.0 0.00 0.00 0.00 49 1014.6
20260507113035 66 0 0.0 0.0 0.00 0.00 0.00 49 1014.6
20260507112535 65 0 0.0 0.0 0.00 0.00 0.00 49 1014.6
20260507112034 67 0 0.0 0.0 0.00 0.00 0.00 48 1014.8
20260507111534 68 0 0.0 0.0 0.00 0.00 0.00 48 1014.8
20260507111034 68 0 0.0 0.0 0.00 0.00 0.00 49 1014.7
20260507110533 66 0 0.0 0.0 0.00 0.00 0.00 51 1014.7
20260507110033 64 0 0.0 0.0 0.00 0.00 0.00 53 1014.8
20260507105533 64 0 0.0 0.0 0.00 0.00 0.00 55 1014.9
20260507105033 62 0 0.0 0.0 0.00 0.00 0.00 54 1015.0
20260507104532 64 0 0.0 0.0 0.00 0.00 0.00 54 1015.0
20260507104032 65 0 0.0 0.0 0.00 0.00 0.00 54 1014.9
20260507103532 63 0 0.0 0.0 0.00 0.00 0.00 58 1015.0
20260507103031 60 0 0.0 0.0 0.00 0.00 0.00 59 1015.0
20260507102531 59 0 0.0 0.0 0.00 0.00 0.00 61 1015.1
20260507102031 59 0 0.0 0.0 0.00 0.00 0.00 62 1015.2
20260507101531 58 0 0.0 0.0 0.00 0.00 0.00 62 1015.1
20260507101030 58 0 0.0 0.0 0.00 0.00 0.00 62 1015.0
20260507100530 58 0 0.0 0.0 0.00 0.00 0.00 63 1015.0
20260507100030 57 0 0.0 0.0 0.00 0.00 0.00 64 1015.0
20260507095529 57 0 0.0 0.0 0.00 0.00 0.00 64 1015.1
20260507095029 57 0 0.0 0.0 0.00 0.00 0.00 63 1015.1
20260507094529 57 0 0.0 0.0 0.00 0.00 0.00 65 1015.0
20260507094029 57 0 0.0 0.0 0.00 0.00 0.00 66 1015.0
20260507093528 57 0 0.0 0.0 0.00 0.00 0.00 65 1015.0
20260507093028 57 0 0.0 0.0 0.00 0.00 0.00 67 1015.0
20260507092528 56 0 0.0 0.0 0.00 0.00 0.00 69 1015.0
20260507092027 55 0 0.0 0.0 0.00 0.00 0.00 69 1014.8
20260507091527 55 0 0.0 0.0 0.00 0.00 0.00 69 1014.8
20260507091027 55 0 0.0 0.0 0.00 0.00 0.00 71 1014.8
20260507090527 54 0 0.0 0.0 0.00 0.00 0.00 74 1014.8
20260507090026 53 0 0.0 0.0 0.00 0.00 0.00 74 1014.9
20260507085526 53 0 0.0 0.0 0.00 0.00 0.00 76 1014.8
20260507085026 52 0 0.0 0.0 0.00 0.00 0.00 76 1014.9
20260507084526 52 0 0.0 0.0 0.00 0.00 0.00 77 1014.8
20260507084025 51 0 0.0 0.0 0.00 0.00 0.00 79 1014.8
20260507083525 51 0 0.0 0.0 0.00 0.00 0.00 79 1014.9
20260507083025 50 0 0.0 0.0 0.00 0.00 0.00 79 1014.8
20260507082524 50 0 0.0 0.0 0.00 0.00 0.00 79 1014.7
20260507082024 50 0 0.0 0.0 0.00 0.00 0.00 79 1014.7
20260507081524 49 0 0.0 0.0 0.00 0.00 0.00 79 1014.7
20260507081024 49 0 0.0 0.0 0.00 0.00 0.00 78 1014.6
20260507080523 50 0 0.0 0.0 0.00 0.00 0.00 78 1014.5
20260507080023 50 0 0.0 0.0 0.00 0.00 0.00 78 1014.5
20260507075523 49 0 0.0 0.0 0.00 0.00 0.00 79 1014.6
20260507075022 49 0 0.0 0.0 0.00 0.00 0.00 79 1014.6
20260507074522 49 0 0.0 0.0 0.00 0.00 0.00 79 1014.4
20260507074022 49 0 0.0 0.0 0.00 0.00 0.00 79 1014.3
20260507073522 49 0 0.0 0.0 0.00 0.00 0.00 79 1014.3
20260507073021 49 0 0.0 0.0 0.00 0.00 0.00 79 1014.0
20260507072521 49 0 0.0 0.0 0.00 0.00 0.00 80 1014.1
20260507072021 49 0 0.0 0.0 0.00 0.00 0.00 80 1014.0
20260507071520 49 0 0.0 0.0 0.00 0.00 0.00 79 1014.0
20260507071020 49 0 0.0 0.0 0.00 0.00 0.00 78 1014.0
20260507070520 50 0 0.0 0.0 0.00 0.00 0.00 78 1014.0
20260507070020 50 0 0.0 0.0 0.00 0.00 0.00 77 1013.9
20260507065519 50 0 0.0 0.0 0.00 0.00 0.00 78 1013.9
20260507065019 50 0 0.0 0.0 0.00 0.00 0.00 78 1013.7
20260507064519 50 0 0.0 0.0 0.00 0.00 0.00 78 1013.8
20260507064018 50 0 0.0 0.0 0.00 0.00 0.00 78 1013.8
20260507063518 50 0 0.0 0.0 0.00 0.00 0.00 77 1013.9
20260507063018 50 0 0.0 0.0 0.00 0.00 0.00 76 1013.9
20260507062518 50 0 0.0 0.0 0.00 0.00 0.00 76 1013.6
20260507062017 49 0 0.0 0.0 0.00 0.00 0.00 76 1013.6
20260507061517 49 0 0.0 0.0 0.00 0.00 0.00 76 1013.6
20260507061017 49 0 0.0 0.0 0.00 0.00 0.00 76 1013.4
20260507060516 49 0 0.0 0.0 0.00 0.00 0.00 76 1013.5
20260507060016 49 0 0.0 0.0 0.00 0.00 0.00 76 1013.4
20260507055517 49 0 0.0 0.0 0.00 0.00 0.00 76 1013.3
20260507055016 49 0 0.0 0.0 0.00 0.00 0.00 76 1013.3
20260507054515 49 0 0.0 0.0 0.00 0.00 0.00 77 1013.3
20260507054015 49 0 0.0 0.0 0.00 0.00 0.00 77 1013.3
20260507053515 49 0 0.0 0.0 0.00 0.00 0.00 77 1013.3
20260507053014 49 0 0.0 0.0 0.00 0.00 0.00 77 1013.2
20260507052514 48 0 0.0 0.0 0.00 0.00 0.00 78 1013.1
20260507052014 48 0 0.0 0.0 0.00 0.00 0.00 78 1013.1
20260507051514 48 0 0.0 0.0 0.00 0.00 0.00 78 1013.0
20260507051013 48 0 0.0 0.0 0.00 0.00 0.00 78 1012.9
20260507050513 48 0 0.0 0.0 0.00 0.00 0.00 78 1012.9
20260507050013 48 0 0.0 0.0 0.00 0.00 0.00 78 1012.9
20260507045512 48 0 0.0 0.0 0.00 0.00 0.00 78 1012.8
20260507045012 48 0 0.0 0.0 0.00 0.00 0.00 78 1013.0
20260507044512 48 0 0.0 0.0 0.00 0.00 0.00 78 1013.0
20260507044012 48 0 0.0 0.0 0.00 0.00 0.00 79 1013.0
20260507043511 47 0 0.0 0.0 0.00 0.00 0.00 79 1013.0
20260507043011 47 0 0.0 0.0 0.00 0.00 0.00 79 1013.0
20260507042511 47 0 0.0 0.0 0.00 0.00 0.00 79 1012.7
20260507042010 47 0 0.0 0.0 0.00 0.00 0.00 79 1012.8
20260507041510 47 0 0.0 0.0 0.00 0.00 0.00 79 1012.6
20260507041010 47 0 0.0 0.0 0.00 0.00 0.00 80 1012.6
20260507040510 47 0 0.0 0.0 0.00 0.00 0.00 80 1012.6
20260507040009 47 0 0.0 0.0 0.00 0.00 0.00 80 1012.5
20260507035509 47 0 0.0 0.0 0.00 0.00 0.00 80 1012.5
20260507035009 47 0 0.0 0.0 0.00 0.00 0.00 81 1012.4
20260507034509 47 0 0.0 0.0 0.00 0.00 0.00 81 1012.4
20260507034008 47 0 0.0 0.0 0.00 0.00 0.00 81 1012.3
20260507033508 47 0 0.0 0.0 0.00 0.00 0.00 81 1012.2
20260507033008 47 0 0.0 0.0 0.00 0.00 0.00 81 1012.2
20260507032507 47 0 0.0 0.0 0.00 0.00 0.00 81 1012.2
20260507032007 47 0 0.0 0.0 0.00 0.00 0.00 81 1012.2
20260507031507 47 0 0.0 0.0 0.00 0.00 0.00 82 1012.2
20260507031007 47 0 0.0 0.0 0.00 0.00 0.00 82 1012.2
20260507030506 47 0 0.0 0.0 0.00 0.00 0.00 82 1012.2
20260507030006 46 0 0.0 0.0 0.00 0.00 0.00 83 1012.1
20260507025506 46 0 0.0 0.0 0.00 0.00 0.00 83 1012.1
20260507025005 46 0 0.0 0.0 0.00 0.00 0.00 83 1012.0
20260507024505 46 0 0.0 0.0 0.00 0.00 0.00 83 1012.0
20260507024005 46 0 0.0 0.0 0.00 0.00 0.00 83 1012.0
20260507023505 46 0 0.0 0.0 0.00 0.00 0.00 83 1012.0
20260507023004 46 0 0.0 0.0 0.00 0.00 0.00 83 1012.0
20260507022504 46 0 0.0 0.0 0.00 0.00 0.00 83 1012.1
20260507022004 46 0 0.0 0.0 0.00 0.00 0.00 83 1012.0
20260507021503 46 0 0.0 0.0 0.00 0.00 0.00 82 1012.1
20260507021003 46 0 0.0 0.0 0.00 0.00 0.00 82 1012.0
20260507020503 46 0 0.0 0.0 0.00 0.00 0.00 82 1012.0
20260507020003 46 0 0.0 0.0 0.00 0.00 0.00 82 1011.9
20260507015502 46 0 0.0 0.0 0.00 0.00 0.00 82 1011.9
20260507015002 46 0 0.0 0.0 0.00 0.00 0.00 82 1011.9
20260507014502 46 0 0.0 0.0 0.00 0.00 0.00 82 1011.9
20260507014001 46 0 0.0 0.0 0.00 0.00 0.00 82 1011.9
20260507013501 46 0 0.0 0.0 0.00 0.00 0.00 82 1011.9
20260507013001 46 0 0.0 0.0 0.00 0.00 0.00 81 1011.9
20260507012501 46 0 0.0 0.0 0.00 0.00 0.00 81 1011.8
20260507012000 46 0 0.0 0.0 0.00 0.00 0.00 81 1011.8
20260507011500 46 0 0.0 0.0 0.00 0.00 0.00 81 1011.7
20260507011000 47 0 0.0 0.0 0.00 0.00 0.00 81 1011.7
20260507010459 47 0 0.0 0.0 0.00 0.00 0.00 80 1011.6
20260507005959 47 0 0.0 0.0 0.00 0.00 0.00 80 1011.6
20260507005459 47 0 0.0 0.0 0.00 0.00 0.00 80 1011.6
20260507004959 47 0 0.0 0.0 0.00 0.00 0.00 80 1011.7
20260507004458 47 0 0.0 0.0 0.00 0.00 0.00 80 1011.9
20260507003958 47 0 0.0 0.0 0.00 0.00 0.00 80 1012.0
20260507003458 47 0 0.0 0.0 0.00 0.00 0.00 80 1012.0
20260507002957 47 0 0.0 0.0 0.00 0.00 0.00 80 1011.9
20260507002457 47 0 0.0 0.0 0.00 0.00 0.00 80 1011.9
20260507001957 47 0 0.0 0.0 0.00 0.00 0.00 80 1011.9
20260507001457 47 0 0.0 0.0 0.00 0.00 0.00 80 1012.0
20260507000956 47 0 0.0 0.0 0.00 0.00 0.00 80 1012.0
20260507000456 47 0 0.0 0.0 0.00 0.00 0.00 80 1012.0
20260506235956 47 0 0.0 0.0 0.00 0.00 0.00 80 1012.0
20260506235455 47 0 0.0 0.0 0.00 0.00 0.00 80 1012.2
20260506234956 47 0 0.0 0.0 0.00 0.00 0.00 80 1012.1
20260506234455 48 0 0.0 0.0 0.00 0.00 0.00 80 1012.0
20260506233955 48 0 0.0 0.0 0.00 0.00 0.00 80 1011.9
20260506233454 48 0 0.0 0.0 0.00 0.00 0.00 80 1011.9
20260506232954 48 0 0.0 0.0 0.00 0.00 0.00 80 1011.9
20260506232454 48 0 0.0 0.0 0.00 0.00 0.00 80 1011.9
20260506231954 48 0 0.0 0.0 0.00 0.00 0.00 80 1012.0
20260506231453 48 0 0.0 0.0 0.00 0.00 0.00 80 1012.0
20260506230953 48 0 0.0 0.0 0.00 0.00 0.00 80 1011.9
20260506230453 48 0 0.0 0.0 0.00 0.00 0.00 80 1011.9
20260506225952 48 0 0.0 0.0 0.00 0.00 0.00 80 1011.9
20260506225452 48 0 0.0 0.0 0.00 0.00 0.00 80 1011.8
20260506224952 48 0 0.0 0.0 0.00 0.00 0.00 80 1011.8
20260506224452 47 0 0.0 0.0 0.00 0.00 0.00 80 1011.8
20260506223951 47 0 0.0 0.0 0.00 0.00 0.00 80 1011.6
20260506223451 47 0 0.0 0.0 0.00 0.00 0.00 80 1011.6
20260506222951 48 0 0.0 0.0 0.00 0.00 0.00 80 1011.5
20260506222450 48 0 0.0 0.0 0.00 0.00 0.00 80 1011.5
20260506221950 48 0 0.0 0.0 0.00 0.00 0.00 80 1011.5
20260506221450 48 0 0.0 0.0 0.00 0.00 0.00 80 1011.5
20260506220950 48 0 0.0 0.0 0.00 0.00 0.00 80 1011.6
20260506220449 47 0 0.0 0.0 0.00 0.00 0.00 80 1011.5
20260506215949 47 0 0.0 0.0 0.00 0.00 0.00 81 1011.5
20260506215449 47 0 0.0 0.0 0.00 0.00 0.00 81 1011.5
20260506214948 47 0 0.0 0.0 0.00 0.00 0.00 81 1011.5
20260506214448 47 0 0.0 0.0 0.00 0.00 0.00 81 1011.4
20260506213948 47 0 0.0 0.0 0.00 0.00 0.00 81 1011.4
20260506213448 47 0 0.0 0.0 0.00 0.00 0.00 81 1011.4
20260506212947 48 0 0.0 0.0 0.00 0.00 0.00 81 1011.3
20260506212447 48 0 0.0 0.0 0.00 0.00 0.00 81 1011.3
20260506211947 48 0 0.0 0.0 0.00 0.00 0.00 81 1011.3
20260506211446 48 0 0.0 0.0 0.00 0.00 0.00 81 1011.3
20260506210946 48 0 0.0 0.0 0.00 0.00 0.00 81 1011.3
20260506210446 47 0 0.0 0.0 0.00 0.00 0.00 81 1011.3
20260506205946 47 0 0.0 0.0 0.00 0.00 0.00 81 1011.3
20260506205445 47 0 0.0 0.0 0.00 0.00 0.00 81 1011.3
20260506204945 47 0 0.0 0.0 0.00 0.00 0.00 81 1011.3
20260506204445 48 0 0.0 0.0 0.00 0.00 0.00 81 1011.2
20260506203944 48 0 0.0 0.0 0.00 0.00 0.00 81 1011.2
20260506203444 48 0 0.0 0.0 0.00 0.00 0.00 81 1011.5
20260506202944 47 0 0.0 0.0 0.00 0.00 0.00 81 1011.4
20260506202444 47 0 0.0 0.0 0.00 0.00 0.00 81 1011.4
20260506201943 47 0 0.0 0.0 0.00 0.00 0.00 81 1011.3
20260506201443 47 0 0.0 0.0 0.00 0.00 0.00 80 1011.2
20260506200943 47 0 0.0 0.0 0.00 0.00 0.00 80 1011.0
20260506200442 47 0 0.0 0.0 0.00 0.00 0.00 80 1011.0
20260506195942 47 0 0.0 0.0 0.00 0.00 0.00 80 1011.0